sat.trackr.live / text

‹ back to catalog

STARLINK-1356

NORAD 45564 · 2020-025AK

PAYLOAD ACTIVE UNKNOWN

§ Identity

Operator
Country
US
Launch date
2020-04-22
Launch site
AFETR
Launch vehicle
Mass (kg)
RCS (m²)

Purposes: comms

External: N2YO · Heavens-Above · Gunter

§ Orbital elements

Epoch: 2026-09-19T13:44:05.939808Z

Period
91.42 min
Inclination
53.0383°
Eccentricity
0.0003284
Mean motion
15.75110227 rev/d
Perigee alt
342.1 km
Apogee alt
346.5 km
Semi-major
6,722.5 km
B*
4.0362e-4
RAAN
206.8471°
Arg perigee
65.0553°
Mean anomaly
295.0806°
Rev number
35,584

§ Raw data

STARLINK-13561 45564U 20025AK  26262.57229097  .00061352  00000+0  40362-3 0  99962 45564  53.0383 206.8471 0003284  65.0553 295.0806 15.75110227355843

JSON: /api/v1/satellites/45564 · /tle

For live sub-satellite position, see the globe view (requires WebGL).

§ Visibility from observer

Set your observer location to see the next 7 days of passes ≥ 10°. The values pass through the URL so the page stays shareable.

No JS? Fill the form by hand. The geolocation button needs JavaScript.